Location: Axtheid
(49.6213°N, 11.8205°E)
Time: 16:32:53
(UTC+00:00)

Envisat - Pass Details

Date: 03 October 2022
Orbit: 763 x 765 km, 98.2° (Epoch: 30 November)

Event Time Altitude Azimuth Distance (km) Brightness Sun altitude
Rises 02:17:47 0° 27° (NNE) 3,245 7.1 -28.4°
Reaches altitude 10° 02:20:55 10° 47° (NE) 2,313 6.4 -28.0°
Maximum altitude 02:24:14 17° 88° (E) 1,857 5.6 -27.5°
Drops below altitude 10° 02:27:31 10° 129° (SE) 2,301 5.7 -27.1°
Sets 02:30:36 0° 149° (SSE) 3,220 6.3 -26.6°
